Location: Columbia
(38.9520°N, 92.3340°W)
Time: 14:29:18
(UTC-05:00)

Cosmos 2219 Rocket - Visible Passes

Search period start: 16 September 2014 00:00
Search period end: 26 September 2014 00:00
Orbit: 828 x 847 km, 71.0° (Epoch: 15 September)

Date Brightness Start Highest point End Pass type
(mag) Time Alt. Az. Time Alt. Az. Time Alt. Az.
16 Sep 3.8 03:26:07 30° NNE 03:26:07 30° NNE 03:28:52 10° NNE visible
16 Sep 4.0 05:07:52 15° NW 05:07:54 15° NW 05:11:09 10° NNW visible
17 Sep 4.2 03:10:29 24° NNE 03:10:29 24° NNE 03:12:36 10° NNE visible
17 Sep 4.0 04:52:13 16° NW 04:52:13 16° NW 04:55:04 10° NNW visible
18 Sep 4.5 02:54:49 19° NNE 02:54:49 19° NNE 02:56:20 10° NNE visible
18 Sep 4.1 04:36:33 17° NW 04:36:33 17° NW 04:38:59 10° N visible
19 Sep 4.8 02:39:07 15° NNE 02:39:07 15° NNE 02:40:03 10° NNE visible
19 Sep 4.2 04:20:51 16° NNW 04:20:51 16° NNW 04:22:52 10° N visible
20 Sep 5.0 02:23:24 12° NNE 02:23:24 12° NNE 02:23:46 10° NNE visible
20 Sep 4.3 04:05:08 16° NNW 04:05:08 16° NNW 04:06:44 10° N visible
21 Sep 4.5 03:49:23 15° NNW 03:49:23 15° NNW 03:50:36 10° N visible
22 Sep 4.6 03:33:37 13° N 03:33:37 13° N 03:34:27 10° N visible
23 Sep 4.8 03:17:49 12° N 03:17:49 12° N 03:18:17 10° N visible
24 Sep 4.9 03:02:01 11° N 03:02:01 11° N 03:02:08 10° N visible
